Location: Unspecified
(0.0000°N, 0.0000°E)
Time: 17:18:17
(UTC+00:00)

Vanguard 3 - Pass Details

Date: 05 February 2023
Orbit: 509 x 3249 km, 33.3° (Epoch: 20 March)

Event Time Altitude Azimuth Distance (km) Brightness Sun altitude
Rises 14:29:05 0° 242° (WSW) 2,600 10.3 53.1°
Reaches altitude 10° 14:31:06 10° 245° (WSW) 1,754 9.7 52.6°
Maximum altitude 14:34:50 61° 327° (NNW) 686 7.7 51.8°
Drops below altitude 10° 14:39:58 10° 47° (NE) 2,395 9.3 50.6°
Sets 14:43:08 0° 50° (NE) 3,686 10.1 49.9°
